owner,sensor,date,latitude,longitude,vertical_datum,direction_of_sea_water_velocity,sea_water_speed,upward_sea_water_velocity,qcFlag 
TABS,ioos:station:wmo:42043:1,2013-09-01T00:00:00Z,28.9818,-94.9186,2.0,253.0547744,17.87607619,-99999.0,'11111222,11111222,99999999' 
TABS,ioos:station:wmo:42043:1,2013-09-01T00:30:00Z,28.9818,-94.9186,2.0,258.5310744,16.2953521,-99999.0,'11111222,11111222,99999999' 
TABS,ioos:station:wmo:42043:1,2013-09-01T01:00:00Z,28.9818,-94.9186,2.0,264.3906307,16.26788862,-99999.0,'11111222,11111222,99999999' 
TABS,ioos:station:wmo:42043:1,2013-09-01T01:30:00Z,28.9818,-94.9186,2.0,279.733636,14.25519554,-99999.0,'11111222,11111222,99999999' 
TABS,ioos:station:wmo:42043:1,2013-09-01T02:00:00Z,28.9818,-94.9186,2.0,301.932619,13.29132424,-99999.0,'11111222,11111222,99999999' 
TABS,ioos:station:wmo:42043:1,2013-09-01T02:30:00Z,28.9818,-94.9186,2.0,322.0172302,14.41272008,-99999.0,'11111222,11111222,99999999' 
TABS,ioos:station:wmo:42043:1,2013-09-01T03:00:00Z,28.9818,-94.9186,2.0,342.2255326,12.34951416,-99999.0,'11111222,11111222,99999999' 
TABS,ioos:station:wmo:42043:1,2013-09-01T03:30:00Z,28.9818,-94.9186,2.0,347.3970168,15.03220875,-99999.0,'11111222,11111222,99999999' 
TABS,ioos:station:wmo:42043:1,2013-09-01T04:00:00Z,28.9818,-94.9186,2.0,356.613476,16.58897224,-99999.0,'11111222,11111222,99999999' 
TABS,ioos:station:wmo:42043:1,2013-09-01T04:30:00Z,28.9818,-94.9186,2.0,2.359250179,17.73503031,-99999.0,'11111222,11111222,99999999' 
TABS,ioos:station:wmo:42043:1,2013-09-01T05:00:00Z,28.9818,-94.9186,2.0,355.5143812,9.077808105,-99999.0,'11133222,11111222,99999999' 
TABS,ioos:station:wmo:42043:1,2013-09-01T05:30:00Z,28.9818,-94.9186,2.0,0.66786438,13.73093223,-99999.0,'11111222,11111222,99999999' 
TABS,ioos:station:wmo:42043:1,2013-09-01T06:00:00Z,28.9818,-94.9186,2.0,359.2952661,8.940676708,-99999.0,'11133222,11144222,99999999' 
TABS,ioos:station:wmo:42043:1,2013-09-01T06:30:00Z,28.9818,-94.9186,2.0,11.76847187,8.090049444,-99999.0,'11133222,11111222,99999999' 
TABS,ioos:station:wmo:42043:1,2013-09-01T07:00:00Z,28.9818,-94.9186,2.0,357.373811,7.638023304,-99999.0,'11133222,11111222,99999999' 
TABS,ioos:station:wmo:42043:1,2013-09-01T07:30:00Z,28.9818,-94.9186,2.0,13.58031109,7.921464511,-99999.0,'11133222,11111222,99999999' 
TABS,ioos:station:wmo:42043:1,2013-09-01T08:00:00Z,28.9818,-94.9186,2.0,15.58693492,6.364039598,-99999.0,'11133222,11111222,99999999' 
TABS,ioos:station:wmo:42043:1,2013-09-01T08:30:00Z,28.9818,-94.9186,2.0,354.7125164,4.448932456,-99999.0,'11133222,11111222,99999999' 
TABS,ioos:station:wmo:42043:1,2013-09-01T09:00:00Z,28.9818,-94.9186,2.0,10.49166294,1.647543626,-99999.0,'11133222,11111222,99999999' 
TABS,ioos:station:wmo:42043:1,2013-09-01T09:30:00Z,28.9818,-94.9186,2.0,160.1146709,2.4989998,-99999.0,'11133222,11111222,99999999' 
TABS,ioos:station:wmo:42043:1,2013-09-01T10:00:00Z,28.9818,-94.9186,2.0,94.93207589,1.977321421,-99999.0,'11133222,11111222,99999999' 
TABS,ioos:station:wmo:42043:1,2013-09-01T10:30:00Z,28.9818,-94.9186,2.0,140.6513764,2.72855273,-99999.0,'11133222,11111222,99999999' 
TABS,ioos:station:wmo:42043:1,2013-09-01T11:00:00Z,28.9818,-94.9186,2.0,322.5949413,0.428018691,-99999.0,'11133222,11111222,99999999' 
TABS,ioos:station:wmo:42043:1,2013-09-01T11:30:00Z,28.9818,-94.9186,2.0,90.30970318,3.700054054,-99999.0,'11133222,11111222,99999999' 
TABS,ioos:station:wmo:42043:1,2013-09-01T12:00:00Z,28.9818,-94.9186,2.0,79.8303822,4.927413114,-99999.0,'11133222,11111222,99999999' 
TABS,ioos:station:wmo:42043:1,2013-09-01T12:30:00Z,28.9818,-94.9186,2.0,80.36248442,2.687936011,-99999.0,'11133222,11111222,99999999' 
TABS,ioos:station:wmo:42043:1,2013-09-01T13:00:00Z,28.9818,-94.9186,2.0,75.54611059,7.652202297,-99999.0,'11133222,11111222,99999999' 
TABS,ioos:station:wmo:42043:1,2013-09-01T13:30:00Z,28.9818,-94.9186,2.0,129.5158483,41.28601943,-99999.0,'11111222,11111222,99999999' 
TABS,ioos:station:wmo:42043:1,2013-09-01T14:00:00Z,28.9818,-94.9186,2.0,132.5142905,35.70713234,-99999.0,'11111222,11111222,99999999' 
TABS,ioos:station:wmo:42043:1,2013-09-01T14:30:00Z,28.9818,-94.9186,2.0,139.7593029,31.87313916,-99999.0,'11111222,11111222,99999999' 
TABS,ioos:station:wmo:42043:1,2013-09-01T15:00:00Z,28.9818,-94.9186,2.0,146.7311283,26.778876,-99999.0,'11111222,11111222,99999999' 
TABS,ioos:station:wmo:42043:1,2013-09-01T15:30:00Z,28.9818,-94.9186,2.0,155.5084099,24.96639541,-99999.0,'11111222,11111222,99999999' 
TABS,ioos:station:wmo:42043:1,2013-09-01T16:00:00Z,28.9818,-94.9186,2.0,163.8602091,21.47644756,-99999.0,'11111222,11111222,99999999' 
TABS,ioos:station:wmo:42043:1,2013-09-01T16:30:00Z,28.9818,-94.9186,2.0,170.6640695,20.8359785,-99999.0,'11111222,11111222,99999999' 
TABS,ioos:station:wmo:42043:1,2013-09-01T17:00:00Z,28.9818,-94.9186,2.0,178.681618,20.8655218,-99999.0,'11111222,11111222,99999999' 
TABS,ioos:station:wmo:42043:1,2013-09-01T17:30:00Z,28.9818,-94.9186,2.0,185.3962457,21.05331328,-99999.0,'11111222,11111222,99999999' 
TABS,ioos:station:wmo:42043:1,2013-09-01T18:00:00Z,28.9818,-94.9186,2.0,188.1176136,19.82868881,-99999.0,'11111222,11111222,99999999' 
TABS,ioos:station:wmo:42043:1,2013-09-01T18:30:00Z,28.9818,-94.9186,2.0,202.042335,19.85100753,-99999.0,'11111222,11111222,99999999' 
TABS,ioos:station:wmo:42043:1,2013-09-01T19:00:00Z,28.9818,-94.9186,2.0,213.1816426,21.57868624,-99999.0,'11111222,11111222,99999999' 
TABS,ioos:station:wmo:42043:1,2013-09-01T19:30:00Z,28.9818,-94.9186,2.0,229.5028481,22.60527593,-99999.0,'11111222,11111222,99999999' 
TABS,ioos:station:wmo:42043:1,2013-09-01T20:00:00Z,28.9818,-94.9186,2.0,229.6955019,21.33431274,-99999.0,'11111222,11111222,99999999' 
TABS,ioos:station:wmo:42043:1,2013-09-01T20:30:00Z,28.9818,-94.9186,2.0,230.551279,20.538795,-99999.0,'11111222,11111222,99999999' 
TABS,ioos:station:wmo:42043:1,2013-09-01T21:00:00Z,28.9818,-94.9186,2.0,247.4991246,22.52466426,-99999.0,'11111222,11111222,99999999' 
TABS,ioos:station:wmo:42043:1,2013-09-01T21:30:00Z,28.9818,-94.9186,2.0,244.2161547,22.62216833,-99999.0,'11111222,11111222,99999999' 
TABS,ioos:station:wmo:42043:1,2013-09-01T22:00:00Z,28.9818,-94.9186,2.0,241.6415534,23.01146236,-99999.0,'11111222,11111222,99999999' 
TABS,ioos:station:wmo:42043:1,2013-09-01T22:30:00Z,28.9818,-94.9186,2.0,247.8693523,20.70537128,-99999.0,'11111222,11111222,99999999' 
TABS,ioos:station:wmo:42043:1,2013-09-01T23:00:00Z,28.9818,-94.9186,2.0,251.5398378,14.59075049,-99999.0,'11111222,11111222,99999999' 
TABS,ioos:station:wmo:42043:1,2013-09-01T23:30:00Z,28.9818,-94.9186,2.0,260.8164535,13.15865115,-99999.0,'11111222,11111222,99999999' 
TABS,ioos:station:wmo:42043:1,2013-09-02T00:00:00Z,28.9818,-94.9186,2.0,278.3092732,18.13030612,-99999.0,'11111222,11111222,99999999' 
TABS,ioos:station:wmo:42043:1,2013-09-02T00:30:00Z,28.9818,-94.9186,2.0,289.1857954,18.34910897,-99999.0,'11111222,11111222,99999999' 
TABS,ioos:station:wmo:42043:1,2013-09-02T01:00:00Z,28.9818,-94.9186,2.0,298.5078454,18.20758358,-99999.0,'11111222,11111222,99999999' 
TABS,ioos:station:wmo:42043:1,2013-09-02T01:30:00Z,28.9818,-94.9186,2.0,307.2950495,16.45445229,-99999.0,'11111222,11111222,99999999' 
TABS,ioos:station:wmo:42043:1,2013-09-02T02:00:00Z,28.9818,-94.9186,2.0,325.4433198,18.88138236,-99999.0,'11111222,11111222,99999999' 
TABS,ioos:station:wmo:42043:1,2013-09-02T02:30:00Z,28.9818,-94.9186,2.0,336.9874777,16.6011596,-99999.0,'11111222,11111222,99999999' 
TABS,ioos:station:wmo:42043:1,2013-09-02T03:00:00Z,28.9818,-94.9186,2.0,0.497988078,23.02086879,-99999.0,'11111222,11111222,99999999' 
TABS,ioos:station:wmo:42043:1,2013-09-02T03:30:00Z,28.9818,-94.9186,2.0,7.63146372,22.74141596,-99999.0,'11111222,11111222,99999999' 
TABS,ioos:station:wmo:42043:1,2013-09-02T04:00:00Z,28.9818,-94.9186,2.0,21.18650959,24.04521782,-99999.0,'11111222,11111222,99999999' 
TABS,ioos:station:wmo:42043:1,2013-09-02T04:30:00Z,28.9818,-94.9186,2.0,17.71726749,17.41602997,-99999.0,'11111222,11111222,99999999' 
TABS,ioos:station:wmo:42043:1,2013-09-02T05:00:00Z,28.9818,-94.9186,2.0,20.93744677,19.70080201,-99999.0,'11111222,11111222,99999999' 
TABS,ioos:station:wmo:42043:1,2013-09-02T05:30:00Z,28.9818,-94.9186,2.0,28.91849088,22.87190416,-99999.0,'11111222,11111222,99999999' 
TABS,ioos:station:wmo:42043:1,2013-09-02T06:00:00Z,28.9818,-94.9186,2.0,39.05939999,27.32794906,-99999.0,'11111222,11111222,99999999' 
TABS,ioos:station:wmo:42043:1,2013-09-02T06:30:00Z,28.9818,-94.9186,2.0,53.07613309,36.03801604,-99999.0,'11111222,11111222,99999999' 
TABS,ioos:station:wmo:42043:1,2013-09-02T07:00:00Z,28.9818,-94.9186,2.0,65.15164932,44.7861809,-99999.0,'11111222,11111222,99999999' 
TABS,ioos:station:wmo:42043:1,2013-09-02T07:30:00Z,28.9818,-94.9186,2.0,65.64099443,43.56853222,-99999.0,'11111222,11111222,99999999' 
TABS,ioos:station:wmo:42043:1,2013-09-02T08:00:00Z,28.9818,-94.9186,2.0,69.30937987,44.83156477,-99999.0,'11111222,11111222,99999999' 
TABS,ioos:station:wmo:42043:1,2013-09-02T08:30:00Z,28.9818,-94.9186,2.0,72.71727472,47.96563874,-99999.0,'11111222,11111222,99999999' 
TABS,ioos:station:wmo:42043:1,2013-09-02T09:00:00Z,28.9818,-94.9186,2.0,76.67253052,49.4107124,-99999.0,'11111222,11111222,99999999' 
TABS,ioos:station:wmo:42043:1,2013-09-02T09:30:00Z,28.9818,-94.9186,2.0,82.48711876,57.89701979,-99999.0,'11111222,11111222,99999999' 
TABS,ioos:station:wmo:42043:1,2013-09-02T10:00:00Z,28.9818,-94.9186,2.0,91.48449508,55.19852625,-99999.0,'11111222,11111222,99999999' 
TABS,ioos:station:wmo:42043:1,2013-09-02T10:30:00Z,28.9818,-94.9186,2.0,92.87327185,55.25946978,-99999.0,'11111222,11111222,99999999' 
TABS,ioos:station:wmo:42043:1,2013-09-02T11:00:00Z,28.9818,-94.9186,2.0,98.17883487,51.52406137,-99999.0,'11111222,11111222,99999999' 
TABS,ioos:station:wmo:42043:1,2013-09-02T11:30:00Z,28.9818,-94.9186,2.0,101.980457,54.62992953,-99999.0,'11111222,11111222,99999999' 
TABS,ioos:station:wmo:42043:1,2013-09-02T12:00:00Z,28.9818,-94.9186,2.0,105.2791221,48.07944779,-99999.0,'11111222,11111222,99999999' 
TABS,ioos:station:wmo:42043:1,2013-09-02T12:30:00Z,28.9818,-94.9186,2.0,106.1462818,43.87048666,-99999.0,'11111222,11111222,99999999' 
TABS,ioos:station:wmo:42043:1,2013-09-02T13:00:00Z,28.9818,-94.9186,2.0,108.7464223,45.36670585,-99999.0,'11111222,11111222,99999999' 
TABS,ioos:station:wmo:42043:1,2013-09-02T13:30:00Z,28.9818,-94.9186,2.0,114.5135687,45.60029057,-99999.0,'11111222,11111222,99999999' 
TABS,ioos:station:wmo:42043:1,2013-09-02T14:00:00Z,28.9818,-94.9186,2.0,116.3238424,44.62783997,-99999.0,'11111222,11111222,99999999' 
TABS,ioos:station:wmo:42043:1,2013-09-02T14:30:00Z,28.9818,-94.9186,2.0,121.31414,42.61819564,-99999.0,'11111222,11111222,99999999' 
TABS,ioos:station:wmo:42043:1,2013-09-02T15:00:00Z,28.9818,-94.9186,2.0,126.4494195,40.61509325,-99999.0,'11111222,11111222,99999999' 
TABS,ioos:station:wmo:42043:1,2013-09-02T15:30:00Z,28.9818,-94.9186,2.0,128.5143592,40.62873491,-99999.0,'11111222,11111222,99999999' 
TABS,ioos:station:wmo:42043:1,2013-09-02T16:00:00Z,28.9818,-94.9186,2.0,132.9304105,36.0293769,-99999.0,'11111222,11111222,99999999' 
TABS,ioos:station:wmo:42043:1,2013-09-02T16:30:00Z,28.9818,-94.9186,2.0,137.1229023,31.30389113,-99999.0,'11111222,11111222,99999999' 
TABS,ioos:station:wmo:42043:1,2013-09-02T17:00:00Z,28.9818,-94.9186,2.0,140.1113911,30.0797357,-99999.0,'11111222,11111222,99999999' 
TABS,ioos:station:wmo:42043:1,2013-09-02T17:30:00Z,28.9818,-94.9186,2.0,142.3042874,30.53317049,-99999.0,'11111222,11111222,99999999' 
TABS,ioos:station:wmo:42043:1,2013-09-02T18:00:00Z,28.9818,-94.9186,2.0,155.2310097,25.39632257,-99999.0,'11111222,11111222,99999999' 
TABS,ioos:station:wmo:42043:1,2013-09-02T18:30:00Z,28.9818,-94.9186,2.0,157.7213398,24.53120462,-99999.0,'11111222,11111222,99999999' 
TABS,ioos:station:wmo:42043:1,2013-09-02T19:00:00Z,28.9818,-94.9186,2.0,160.1568656,26.89696823,-99999.0,'11111222,11111222,99999999' 
TABS,ioos:station:wmo:42043:1,2013-09-02T19:30:00Z,28.9818,-94.9186,2.0,169.7737376,26.02338372,-99999.0,'11111222,11111222,99999999' 
TABS,ioos:station:wmo:42043:1,2013-09-02T20:00:00Z,28.9818,-94.9186,2.0,171.9765945,23.50002766,-99999.0,'11111222,11111222,99999999' 
TABS,ioos:station:wmo:42043:1,2013-09-02T20:30:00Z,28.9818,-94.9186,2.0,180.0482835,23.63000846,-99999.0,'11111222,11111222,99999999' 
TABS,ioos:station:wmo:42043:1,2013-09-02T21:00:00Z,28.9818,-94.9186,2.0,194.9421103,23.61864729,-99999.0,'11111222,11111222,99999999' 
TABS,ioos:station:wmo:42043:1,2013-09-02T21:30:00Z,28.9818,-94.9186,2.0,200.5717946,20.94568452,-99999.0,'11111222,11111222,99999999' 
TABS,ioos:station:wmo:42043:1,2013-09-02T22:00:00Z,28.9818,-94.9186,2.0,203.9925497,15.34594409,-99999.0,'11111222,11111222,99999999' 
TABS,ioos:station:wmo:42043:1,2013-09-02T22:30:00Z,28.9818,-94.9186,2.0,211.5571497,12.74474401,-99999.0,'11111222,11111222,99999999' 
TABS,ioos:station:wmo:42043:1,2013-09-02T23:00:00Z,28.9818,-94.9186,2.0,214.7733451,12.46634269,-99999.0,'11111222,11111222,99999999' 
TABS,ioos:station:wmo:42043:1,2013-09-02T23:30:00Z,28.9818,-94.9186,2.0,241.2866318,8.471705849,-99999.0,'11133222,11111222,99999999' 
TABS,ioos:station:wmo:42043:1,2013-09-03T00:00:00Z,28.9818,-94.9186,2.0,264.8440068,6.677012805,-99999.0,'11133222,11111222,99999999' 
TABS,ioos:station:wmo:42043:1,2013-09-03T00:30:00Z,28.9818,-94.9186,2.0,281.5081247,3.40851874,-99999.0,'11133222,11111222,99999999' 
TABS,ioos:station:wmo:42043:1,2013-09-03T01:00:00Z,28.9818,-94.9186,2.0,336.1920511,6.787613719,-99999.0,'11133222,11111222,99999999' 
TABS,ioos:station:wmo:42043:1,2013-09-03T01:30:00Z,28.9818,-94.9186,2.0,359.3958484,9.480527411,-99999.0,'11133222,11144222,99999999' 
TABS,ioos:station:wmo:42043:1,2013-09-03T02:00:00Z,28.9818,-94.9186,2.0,13.11361802,10.84274873,-99999.0,'11111222,11111222,99999999' 
TABS,ioos:station:wmo:42043:1,2013-09-03T02:30:00Z,28.9818,-94.9186,2.0,13.21876387,14.95626959,-99999.0,'11111222,11111222,99999999' 
TABS,ioos:station:wmo:42043:1,2013-09-03T03:00:00Z,28.9818,-94.9186,2.0,21.25802338,20.16185011,-99999.0,'11111222,11111222,99999999' 
TABS,ioos:station:wmo:42043:1,2013-09-03T03:30:00Z,28.9818,-94.9186,2.0,24.16326675,26.67736869,-99999.0,'11111222,11111222,99999999' 
TABS,ioos:station:wmo:42043:1,2013-09-03T04:00:00Z,28.9818,-94.9186,2.0,29.55849336,29.71763954,-99999.0,'11111222,11111222,99999999' 
TABS,ioos:station:wmo:42043:1,2013-09-03T04:30:00Z,28.9818,-94.9186,2.0,44.39060008,33.23589927,-99999.0,'11111222,11111222,99999999' 
TABS,ioos:station:wmo:42043:1,2013-09-03T05:00:00Z,28.9818,-94.9186,2.0,46.56973547,39.754318,-99999.0,'11111222,11111222,99999999' 
TABS,ioos:station:wmo:42043:1,2013-09-03T05:30:00Z,28.9818,-94.9186,2.0,53.25697981,40.67009958,-99999.0,'11111222,11111222,99999999' 
TABS,ioos:station:wmo:42043:1,2013-09-03T06:00:00Z,28.9818,-94.9186,2.0,58.02376329,39.69268572,-99999.0,'11111222,11111222,99999999' 
TABS,ioos:station:wmo:42043:1,2013-09-03T06:30:00Z,28.9818,-94.9186,2.0,61.2229463,39.50945836,-99999.0,'11111222,11111222,99999999' 
TABS,ioos:station:wmo:42043:1,2013-09-03T07:00:00Z,28.9818,-94.9186,2.0,67.07082146,42.45446502,-99999.0,'11111222,11111222,99999999' 
TABS,ioos:station:wmo:42043:1,2013-09-03T07:30:00Z,28.9818,-94.9186,2.0,75.06447117,44.50349312,-99999.0,'11111222,11111222,99999999' 
TABS,ioos:station:wmo:42043:1,2013-09-03T08:00:00Z,28.9818,-94.9186,2.0,79.11250209,43.36049469,-99999.0,'11111222,11111222,99999999' 
TABS,ioos:station:wmo:42043:1,2013-09-03T08:30:00Z,28.9818,-94.9186,2.0,77.66956141,42.6129898,-99999.0,'11111222,11111222,99999999' 
TABS,ioos:station:wmo:42043:1,2013-09-03T09:00:00Z,28.9818,-94.9186,2.0,81.80844479,42.18035799,-99999.0,'11111222,11111222,99999999' 
TABS,ioos:station:wmo:42043:1,2013-09-03T09:30:00Z,28.9818,-94.9186,2.0,89.23859652,42.89378743,-99999.0,'11111222,11111222,99999999' 
TABS,ioos:station:wmo:42043:1,2013-09-03T10:00:00Z,28.9818,-94.9186,2.0,93.73596705,43.43229789,-99999.0,'11111222,11111222,99999999' 
TABS,ioos:station:wmo:42043:1,2013-09-03T10:30:00Z,28.9818,-94.9186,2.0,95.33775113,43.42832256,-99999.0,'11111222,11111222,99999999' 
TABS,ioos:station:wmo:42043:1,2013-09-03T11:00:00Z,28.9818,-94.9186,2.0,99.82737999,41.53953538,-99999.0,'11111222,11111222,99999999' 
TABS,ioos:station:wmo:42043:1,2013-09-03T11:30:00Z,28.9818,-94.9186,2.0,103.5211184,42.08648239,-99999.0,'11111222,11111222,99999999' 
TABS,ioos:station:wmo:42043:1,2013-09-03T12:00:00Z,28.9818,-94.9186,2.0,106.1412651,38.16448218,-99999.0,'11111222,11111222,99999999' 
TABS,ioos:station:wmo:42043:1,2013-09-03T12:30:00Z,28.9818,-94.9186,2.0,108.7534986,42.08424171,-99999.0,'11111222,11111222,99999999' 
TABS,ioos:station:wmo:42043:1,2013-09-03T13:00:00Z,28.9818,-94.9186,2.0,110.4425406,43.14730351,-99999.0,'11111222,11111222,99999999' 
TABS,ioos:station:wmo:42043:1,2013-09-03T13:30:00Z,28.9818,-94.9186,2.0,114.8933608,39.2462788,-99999.0,'11111222,11111222,99999999' 
TABS,ioos:station:wmo:42043:1,2013-09-03T14:00:00Z,28.9818,-94.9186,2.0,115.8327089,38.14149053,-99999.0,'11111222,11111222,99999999' 
TABS,ioos:station:wmo:42043:1,2013-09-03T14:30:00Z,28.9818,-94.9186,2.0,116.2178384,33.95307939,-99999.0,'11111222,11111222,99999999' 
TABS,ioos:station:wmo:42043:1,2013-09-03T15:00:00Z,28.9818,-94.9186,2.0,121.1055505,31.86110481,-99999.0,'11111222,11111222,99999999' 
TABS,ioos:station:wmo:42043:1,2013-09-03T15:30:00Z,28.9818,-94.9186,2.0,121.6564325,30.63874671,-99999.0,'11111222,11111222,99999999' 
TABS,ioos:station:wmo:42043:1,2013-09-03T16:00:00Z,28.9818,-94.9186,2.0,121.2038153,26.59794917,-99999.0,'11111222,11111222,99999999' 
TABS,ioos:station:wmo:42043:1,2013-09-03T16:30:00Z,28.9818,-94.9186,2.0,121.030775,26.36278058,-99999.0,'11111222,11111222,99999999' 
TABS,ioos:station:wmo:42043:1,2013-09-03T17:00:00Z,28.9818,-94.9186,2.0,122.3437231,26.56083018,-99999.0,'11111222,11111222,99999999' 
TABS,ioos:station:wmo:42043:1,2013-09-03T17:30:00Z,28.9818,-94.9186,2.0,121.859343,22.05226746,-99999.0,'11111222,11111222,99999999' 
TABS,ioos:station:wmo:42043:1,2013-09-03T18:00:00Z,28.9818,-94.9186,2.0,126.4873109,24.26654075,-99999.0,'11111222,11111222,99999999' 
TABS,ioos:station:wmo:42043:1,2013-09-03T18:30:00Z,28.9818,-94.9186,2.0,126.6119183,21.32821605,-99999.0,'11111222,11111222,99999999' 
TABS,ioos:station:wmo:42043:1,2013-09-03T19:00:00Z,28.9818,-94.9186,2.0,129.1307254,18.04804976,-99999.0,'11111222,11111222,99999999' 
TABS,ioos:station:wmo:42043:1,2013-09-03T19:30:00Z,28.9818,-94.9186,2.0,133.5782509,19.38069142,-99999.0,'11111222,11111222,99999999' 
TABS,ioos:station:wmo:42043:1,2013-09-03T20:00:00Z,28.9818,-94.9186,2.0,140.7915318,20.39098085,-99999.0,'11111222,11111222,99999999' 
TABS,ioos:station:wmo:42043:1,2013-09-03T20:30:00Z,28.9818,-94.9186,2.0,155.9877795,18.77477297,-99999.0,'11111222,11111222,99999999' 
TABS,ioos:station:wmo:42043:1,2013-09-03T21:00:00Z,28.9818,-94.9186,2.0,147.886563,13.50651695,-99999.0,'11111222,11111222,99999999' 
TABS,ioos:station:wmo:42043:1,2013-09-03T21:30:00Z,28.9818,-94.9186,2.0,156.2503506,13.38337028,-99999.0,'11111222,11111222,99999999' 
TABS,ioos:station:wmo:42043:1,2013-09-03T22:00:00Z,28.9818,-94.9186,2.0,164.6183108,13.11994284,-99999.0,'11111222,11111222,99999999' 
TABS,ioos:station:wmo:42043:1,2013-09-03T22:30:00Z,28.9818,-94.9186,2.0,176.4013999,9.719161486,-99999.0,'11133222,11111222,99999999' 
TABS,ioos:station:wmo:42043:1,2013-09-03T23:00:00Z,28.9818,-94.9186,2.0,347.9887602,0.961041102,-99999.0,'11133222,11111222,99999999' 
TABS,ioos:station:wmo:42043:1,2013-09-03T23:30:00Z,28.9818,-94.9186,2.0,347.7354654,3.765952735,-99999.0,'11133222,11111222,99999999' 
TABS,ioos:station:wmo:42043:1,2013-09-04T00:00:00Z,28.9818,-94.9186,2.0,324.92566,11.36357778,-99999.0,'11111222,11111222,99999999' 
TABS,ioos:station:wmo:42043:1,2013-09-04T00:30:00Z,28.9818,-94.9186,2.0,337.0179591,14.95722234,-99999.0,'11111222,11111222,99999999' 
TABS,ioos:station:wmo:42043:1,2013-09-04T01:00:00Z,28.9818,-94.9186,2.0,340.9034558,18.88954473,-99999.0,'11111222,11111222,99999999' 
TABS,ioos:station:wmo:42043:1,2013-09-04T01:30:00Z,28.9818,-94.9186,2.0,348.0033392,23.71802901,-99999.0,'11111222,11111222,99999999' 
TABS,ioos:station:wmo:42043:1,2013-09-04T02:00:00Z,28.9818,-94.9186,2.0,355.2921385,29.11825029,-99999.0,'11111222,11111222,99999999' 
TABS,ioos:station:wmo:42043:1,2013-09-04T02:30:00Z,28.9818,-94.9186,2.0,357.8176553,29.67152507,-99999.0,'11111222,11111222,99999999' 
TABS,ioos:station:wmo:42043:1,2013-09-04T03:00:00Z,28.9818,-94.9186,2.0,4.064340189,32.31125191,-99999.0,'11111222,11111222,99999999' 
TABS,ioos:station:wmo:42043:1,2013-09-04T03:30:00Z,28.9818,-94.9186,2.0,9.868107938,34.83537426,-99999.0,'11111222,11111222,99999999' 
TABS,ioos:station:wmo:42043:1,2013-09-04T04:00:00Z,28.9818,-94.9186,2.0,16.04222971,39.08188327,-99999.0,'11111222,11111222,99999999' 
TABS,ioos:station:wmo:42043:1,2013-09-04T04:30:00Z,28.9818,-94.9186,2.0,25.26776312,41.27945373,-99999.0,'11111222,11111222,99999999' 
TABS,ioos:station:wmo:42043:1,2013-09-04T05:00:00Z,28.9818,-94.9186,2.0,28.48972425,42.74642675,-99999.0,'11111222,11111222,99999999' 
TABS,ioos:station:wmo:42043:1,2013-09-04T05:30:00Z,28.9818,-94.9186,2.0,34.15614749,46.04163876,-99999.0,'11111222,11111222,99999999' 
TABS,ioos:station:wmo:42043:1,2013-09-04T06:00:00Z,28.9818,-94.9186,2.0,38.27081188,42.54271383,-99999.0,'11111222,11111222,99999999' 
TABS,ioos:station:wmo:42043:1,2013-09-04T06:30:00Z,28.9818,-94.9186,2.0,42.48857727,41.63201172,-99999.0,'11111222,11111222,99999999' 
TABS,ioos:station:wmo:42043:1,2013-09-04T07:00:00Z,28.9818,-94.9186,2.0,46.24911276,43.46911087,-99999.0,'11111222,11111222,99999999' 
TABS,ioos:station:wmo:42043:1,2013-09-04T07:30:00Z,28.9818,-94.9186,2.0,52.76092974,42.2048765,-99999.0,'11111222,11111222,99999999' 
TABS,ioos:station:wmo:42043:1,2013-09-04T08:00:00Z,28.9818,-94.9186,2.0,57.46993238,43.98009663,-99999.0,'11111222,11111222,99999999' 
TABS,ioos:station:wmo:42043:1,2013-09-04T08:30:00Z,28.9818,-94.9186,2.0,63.55672217,42.10525502,-99999.0,'11111222,11111222,99999999' 
TABS,ioos:station:wmo:42043:1,2013-09-04T09:00:00Z,28.9818,-94.9186,2.0,69.4228169,37.9833661,-99999.0,'11111222,11111222,99999999' 
TABS,ioos:station:wmo:42043:1,2013-09-04T09:30:00Z,28.9818,-94.9186,2.0,73.86138913,40.72489165,-99999.0,'11111222,11111222,99999999' 
TABS,ioos:station:wmo:42043:1,2013-09-04T10:00:00Z,28.9818,-94.9186,2.0,74.71146245,42.05844743,-99999.0,'11111222,11111222,99999999' 
TABS,ioos:station:wmo:42043:1,2013-09-04T10:30:00Z,28.9818,-94.9186,2.0,81.72600441,43.9171265,-99999.0,'11111222,11111222,99999999' 
TABS,ioos:station:wmo:42043:1,2013-09-04T11:00:00Z,28.9818,-94.9186,2.0,85.79003665,40.04806113,-99999.0,'11111222,11111222,99999999' 
TABS,ioos:station:wmo:42043:1,2013-09-04T11:30:00Z,28.9818,-94.9186,2.0,93.56108198,37.51243127,-99999.0,'11111222,11111222,99999999' 
TABS,ioos:station:wmo:42043:1,2013-09-04T12:00:00Z,28.9818,-94.9186,2.0,94.63380104,37.38218827,-99999.0,'11111222,11111222,99999999' 
TABS,ioos:station:wmo:42043:1,2013-09-04T12:30:00Z,28.9818,-94.9186,2.0,95.81576274,35.23134116,-99999.0,'11111222,11111222,99999999' 
TABS,ioos:station:wmo:42043:1,2013-09-04T13:00:00Z,28.9818,-94.9186,2.0,107.6307725,34.69992795,-99999.0,'11111222,11111222,99999999' 
TABS,ioos:station:wmo:42043:1,2013-09-04T13:30:00Z,28.9818,-94.9186,2.0,106.2495374,32.34200056,-99999.0,'11111222,11111222,99999999' 
TABS,ioos:station:wmo:42043:1,2013-09-04T14:00:00Z,28.9818,-94.9186,2.0,109.6151562,31.93313013,-99999.0,'11111222,11111222,99999999' 
TABS,ioos:station:wmo:42043:1,2013-09-04T14:30:00Z,28.9818,-94.9186,2.0,114.4793977,30.72156409,-99999.0,'11111222,11111222,99999999' 
TABS,ioos:station:wmo:42043:1,2013-09-04T15:00:00Z,28.9818,-94.9186,2.0,117.5713857,30.80882503,-99999.0,'11111222,11111222,99999999' 
TABS,ioos:station:wmo:42043:1,2013-09-04T15:30:00Z,28.9818,-94.9186,2.0,126.7261852,30.31809526,-99999.0,'11111222,11111222,99999999' 
TABS,ioos:station:wmo:42043:1,2013-09-04T16:00:00Z,28.9818,-94.9186,2.0,127.2003125,28.08446724,-99999.0,'11111222,11111222,99999999' 